Temp_Advection
nan nan nan nan nan nan nan nan nan nan nan nan nan nan nan nan nan nan nan nan nan nan
nan 0 0 0 0 0 0 0 0 0 0 0 0 0 0 -0 0 0 0 0 0 nan
nan 0 0 0 0 0 0 0 0 0 0 0 0 0 0 -0 0 0 0 0 0 nan
nan 0 0 0 0 0 0 0 0 0 0 0 0 0 0 -0 0 0 0 0 0 nan
nan 0 0 0 0 0 0 0 0 0 0 0 0 1 1 0 0 0 0 0 0 nan
nan -0 -0 -0 0 0 0 0 0 0 0 0 0 0 0 0 0 0 0 1 0 nan
nan -0 -0 -0 -0 -0 -0 -0 0 0 -0 0 0 0 0 1 0 0 0 1 1 nan
nan -0 -0 -0 -0 -0 -0 -0 -0 -0 -0 -0 -0 0 0 0 0 0 0 0 1 nan
nan -0 -0 -0 -0 -0 0 0 0 -0 -0 -0 0 0 0 0 -0 -0 0 0 1 nan
nan -0 -0 -0 -0 -0 -0 -0 -0 0 -0 -0 -0 0 0 0 -0 -1 -1 -0 0 nan
nan -0 -0 -0 -0 -0 -0 -0 -0 -0 -0 -1 -0 -0 -0 -0 0 -0 -1 -1 -1 nan
nan -0 -0 -0 -0 -0 -1 -1 -1 -1 -1 -1 -1 -1 -0 -0 -1 -1 -0 -0 -0 nan
nan -1 -1 -1 -1 -1 -1 -1 -1 -1 -1 -1 -1 -1 -1 -1 -1 -1 -1 -1 -0 nan
nan nan nan nan nan nan nan nan nan nan nan nan nan nan nan nan nan nan nan nan nan nan
Wind_Speed
14 14 13 13 14 15 16 15 15 16 17 17 17 17 18 17 17 17 17 17 17 17
13 13 13 14 15 16 16 17 17 19 19 19 19 20 21 21 20 21 21 20 20 21
12 12 13 14 14 15 14 16 18 19 21 22 23 22 23 24 23 24 24 24 24 25
14 15 15 15 15 15 15 16 17 19 21 22 23 24 25 26 26 28 27 28 28 28
10 11 12 13 14 16 17 18 20 22 24 25 26 27 29 29 29 30 30 30 31 31
10 11 12 14 15 15 17 17 18 20 22 23 24 26 28 29 31 33 34 33 34 33
9 9 9 10 11 12 14 16 17 18 20 22 23 25 27 28 29 31 33 34 36 36
5 7 9 11 13 15 16 18 19 21 21 22 23 24 25 27 28 30 32 33 35 36
7 10 12 15 17 19 20 22 23 24 26 26 27 27 27 28 30 30 31 32 33 35
9 12 15 18 20 21 23 24 25 26 27 28 29 29 30 30 32 33 33 33 33 34
13 16 18 21 24 26 28 29 30 30 30 31 30 30 32 32 34 36 36 35 34 35
16 19 23 27 30 31 33 33 33 33 34 34 34 31 31 33 37 39 40 39 37 36
20 24 28 31 33 33 33 34 34 34 33 33 35 32 31 31 35 39 40 40 39 36
24 27 30 31 31 32 32 33 34 36 36 35 34 34 33 31 33 36 41 41 41 37
Wind_Direction
288 292 297 300 293 285 279 277 277 279 280 283 284 284 284 285 286 286 286 285 285 283
294 294 294 292 294 294 286 278 274 275 276 278 280 281 281 282 282 281 281 282 281 282
287 293 295 298 300 300 294 281 277 276 277 277 278 280 282 283 282 280 280 279 277 277
283 289 293 296 295 293 291 291 287 286 284 283 283 283 282 282 280 278 277 274 273 273
281 284 291 297 299 298 296 293 291 289 287 287 286 283 280 280 279 279 278 278 275 274
301 307 308 309 309 307 305 303 299 296 294 292 290 287 285 282 279 277 276 275 274 274
311 319 325 329 331 328 323 318 313 309 306 302 299 297 294 290 286 281 278 276 273 272
14 2 351 342 334 329 326 323 320 317 315 313 311 309 304 298 293 288 284 280 276 274
354 342 337 333 329 326 323 320 318 316 313 311 310 310 307 303 299 294 290 287 283 278
347 344 339 335 331 328 325 321 317 313 310 307 305 304 302 301 298 296 293 291 288 284
345 344 341 337 333 330 327 324 321 318 315 310 307 304 301 298 295 294 292 291 289 286
339 336 334 331 329 326 323 320 318 318 316 314 311 309 305 302 298 294 291 291 289 287
332 329 327 326 324 323 322 321 320 319 319 319 318 317 311 306 302 300 300 297 291 286
324 324 324 323 324 324 323 322 323 322 322 322 323 321 321 317 308 304 303 301 300 295
Height
1530 1530 1530 1529 1528 1528 1528 1527 1527 1526 1526 1525 1524 1523 1522 1521 1520 1518 1517 1516 1515 1513
1527 1527 1526 1526 1525 1524 1523 1523 1522 1521 1520 1520 1519 1518 1517 1516 1515 1514 1513 1512 1510 1509
1524 1524 1523 1522 1522 1520 1519 1518 1517 1516 1515 1515 1514 1513 1511 1510 1510 1508 1507 1506 1504 1503
1521 1521 1520 1519 1517 1516 1515 1514 1513 1512 1511 1510 1508 1507 1505 1504 1502 1500 1499 1497 1496 1495
1518 1517 1516 1515 1514 1512 1511 1511 1509 1508 1506 1504 1502 1500 1498 1496 1495 1493 1492 1491 1489 1487
1516 1515 1514 1512 1511 1509 1507 1506 1504 1501 1499 1497 1495 1492 1490 1488 1486 1484 1483 1481 1479 1478
1513 1512 1510 1509 1507 1505 1503 1502 1499 1497 1494 1491 1488 1486 1483 1480 1478 1475 1473 1472 1470 1469
1511 1510 1508 1507 1505 1503 1501 1498 1495 1493 1490 1486 1483 1480 1476 1473 1470 1467 1465 1463 1460 1459
1510 1508 1506 1504 1502 1500 1497 1494 1491 1488 1484 1481 1478 1475 1471 1466 1462 1459 1455 1452 1450 1447
1507 1505 1503 1501 1499 1496 1492 1489 1486 1482 1478 1474 1471 1468 1463 1459 1453 1449 1447 1444 1441 1438
1504 1502 1500 1497 1493 1490 1486 1482 1478 1474 1471 1466 1463 1459 1455 1451 1446 1441 1437 1435 1432 1428
1500 1498 1495 1491 1487 1483 1478 1475 1470 1466 1462 1457 1453 1451 1446 1441 1435 1430 1426 1423 1420 1418
1496 1492 1488 1484 1480 1476 1471 1467 1462 1457 1454 1449 1443 1440 1437 1433 1426 1419 1415 1411 1408 1407
1490 1486 1482 1478 1474 1469 1465 1460 1455 1448 1445 1441 1437 1431 1427 1423 1418 1412 1403 1398 1395 1394